Bowling Green, KY

9:06 AM CDT on April 25, 2017 (GMT -0500)
Bowling Green-Warren County Regional

Weather History for KBWG - January, 2014

Change the Weather History Date:

Wednesday, January 15, 2014

  Actual Average Record
Temperature  
Mean Temperature 28 °F 35 °F  
Max Temperature 35 °F 45 °F 70 °F (1952)
Min Temperature 20 °F 26 °F -3 °F (1964)
Degree Days  
Heating Degree Days 37 30  
Month to date heating degree days 486 445  
Since 1 July heating degree days 2173 2029  
Cooling Degree Days 0 0  
Month to date cooling degree days 0 0  
Year to date cooling degree days 0 0  
Moisture  
Dew Point 17 °F    
Average Humidity 72    
Maximum Humidity 96    
Minimum Humidity 47    
Precipitation  
Precipitation T in 0.11 in 3.02 in (1898)
Month to date precipitation 1.63 1.72  
Year to date precipitation 1.63 1.72  
Snow  
Snow T in 0.10 in 4.00 in (1917)
Month to date snowfall 0.9 1.4  
Since 1 July snowfall 2.1 2.6  
Snow Depth 0.00 in    
Sea Level Pressure  
Sea Level Pressure 30.13 in    
Wind  
Wind Speed 5 mph (WNW)    
Max Wind Speed 15 mph    
Max Gust Speed 21 mph    
Visibility 10 miles    
Events      
T = Trace of Precipitation, MM = Missing Value Source: NWS Daily Summary

Daily Weather History Graph

Daily Weather History Graph

Search for Another Location

Airport or City:

Trip Planner

Search our weather history database for the weather conditions in past years. The results will help you decide how hot, cold, wet, or windy it might be!

Date:

Astronomy

Jan. 15, 2014 Rise Set
Actual Time 6:57 AM CST 4:52 PM CST
Civil Twilight 6:29 AM CST 5:21 PM CST
Nautical Twilight 5:57 AM CST 5:52 PM CST
Astronomical Twilight 5:26 AM CST 6:24 PM CST
Moon 4:48 PM CST (1/15) 6:14 AM CST (1/15)
Length of Visible Light 10h 51m
Length of Day
9h 54m
Full, 100% of the Moon is Illuminated
Jan 15
Full
Jan 15
Full
Jan 23
Last Quarter
Jan 30
New
Feb 6
First Quarter

Hourly Weather History & Observations

Time (CST) Temp. Windchill Dew Point Humidity Pressure Visibility Wind Dir Wind Speed Gust Speed Precip Events Conditions
12:53 AM 34.0 °F 28.8 °F 30.9 °F 89% 30.05 in 10.0 mi WNW 5.8 mph - N/A   Clear
1:53 AM 34.0 °F 31.0 °F 28.0 °F 79% 30.06 in 10.0 mi NW 3.5 mph - N/A   Clear
2:53 AM 32.0 °F 25.6 °F 26.1 °F 79% 30.08 in 10.0 mi NW 6.9 mph - N/A   Clear
3:53 AM 30.9 °F 25.2 °F 23.0 °F 72% 30.08 in 10.0 mi NW 5.8 mph - N/A   Clear
4:53 AM 28.9 °F 22.8 °F 16.0 °F 58% 30.09 in 10.0 mi NW 5.8 mph - N/A   Clear
5:53 AM 28.0 °F 22.8 °F 16.0 °F 61% 30.11 in 10.0 mi NW 4.6 mph - N/A   Clear
6:53 AM 26.1 °F 21.9 °F 16.0 °F 66% 30.12 in 10.0 mi West 3.5 mph - N/A   Clear
7:53 AM 26.1 °F 21.9 °F 17.1 °F 69% 30.14 in 10.0 mi WSW 3.5 mph - N/A   Clear
8:53 AM 28.9 °F 20.4 °F 17.1 °F 61% 30.15 in 10.0 mi West 9.2 mph - N/A   Clear
9:53 AM 30.9 °F 24.3 °F 18.0 °F 59% 30.16 in 10.0 mi NW 6.9 mph - N/A   Clear
10:53 AM 30.9 °F 22.2 °F 16.0 °F 54% 30.16 in 10.0 mi West 10.4 mph - N/A   Mostly Cloudy
11:53 AM 32.0 °F 23.0 °F 15.1 °F 50% 30.13 in 10.0 mi WNW 11.5 mph 18.4 mph N/A   Mostly Cloudy
12:53 PM 33.1 °F 24.4 °F 16.0 °F 50% 30.12 in 10.0 mi West 11.5 mph - N/A   Mostly Cloudy
1:53 PM 30.0 °F 21.7 °F 15.1 °F 54% 30.12 in 10.0 mi WNW 9.2 mph - N/A   Overcast
2:53 PM 30.0 °F 21.1 °F 15.1 °F 54% 30.14 in 10.0 mi WNW 10.4 mph - N/A   Overcast
3:53 PM 30.0 °F 21.7 °F 16.0 °F 56% 30.15 in 10.0 mi WNW 9.2 mph - 0.00 in   Overcast
4:53 PM 28.9 °F 21.9 °F 16.0 °F 58% 30.16 in 10.0 mi NW 6.9 mph - N/A   Overcast
5:53 PM 28.0 °F 24.2 °F 14.0 °F 56% 30.18 in 10.0 mi Variable 3.5 mph - N/A   Overcast
6:53 PM 26.1 °F - 14.0 °F 60% 30.17 in 10.0 mi Calm Calm - N/A   Clear
7:53 PM 25.0 °F - 14.0 °F 63% 30.17 in 10.0 mi Calm Calm - N/A   Clear
8:53 PM 24.1 °F - 15.1 °F 69% 30.17 in 10.0 mi Calm Calm - N/A   Clear
9:53 PM 21.0 °F - 14.0 °F 74% 30.16 in 10.0 mi Calm Calm - N/A   Clear
10:53 PM 21.0 °F - 14.0 °F 74% 30.15 in 10.0 mi Calm Calm - N/A   Clear
11:53 PM 21.0 °F - 14.0 °F 74% 30.14 in 10.0 mi Calm Calm - N/A   Clear